[[{"header":{"parameterUnit":"m.s-1","parameterCategory":1,"la1":30.2991,"la2":30.254,"lo1":-89.0895,"lo2":-89.0444,"dy":0.0017,"dx":0.0017,"nx":28,"ny":28,"refTime":"2024-07-28T03:00:00:Z","depth":0,"parameterNumber":2,"parameterNumberName":"U-component_of_WINDS"},"data":[0,0,0,0,0,0,0,0,0,0,0,0,0,0,0,0,0,0,0,0,0,0,0,0,0,0,0,0,0,0,0,0,0,0,0,0,0,0,0,0,0,0,0,0,0,0,0,0,0,0,0,0,0,0,0,0,0,0,2.1619,2.162,0,2.1687,2.1688,2.1688,2.1685,2.1684,2.1683,2.1682,2.1757,2.1759,2.1762,0,0,0,0,0,0,0,0,0,0,0,0,0,2.1491,2.1493,2.1619,2.162,2.162,2.1687,2.1688,2.1689,2.1685,2.1684,2.1682,2.1681,2.1756,2.1759,2.1763,0,0,0,0,0,0,0,0,0,0,0,0,0,2.1551,2.1494,2.1619,2.1626,2.1628,2.1687,2.1688,2.1689,2.1685,2.1683,2.1682,2.1681,2.1754,2.1759,2.1763,2.182,0,0,2.1776,2.1778,0,0,0,0,0,0,0,0,2.1548,2.1556,2.1624,2.1626,2.1628,2.1676,2.167,2.1733,2.1685,2.1663,2.1682,2.168,2.1731,2.1737,2.1754,2.1824,2.1827,2.1777,2.178,2.1781,2.1783,0,0,0,0,0,0,0,2.1544,2.1553,2.1646,2.1625,2.1627,2.1628,2.1635,2.1682,2.1705,2.1665,2.1665,2.1673,2.1732,2.1749,2.1755,2.1828,2.1777,2.1781,2.1783,2.1785,2.195,2.1951,0,0,0,0,0,0,2.1537,2.155,2.1644,2.1648,2.1583,2.1632,2.1639,2.1662,2.1705,2.1709,2.1674,2.1672,2.1743,2.175,2.1758,2.1829,2.1781,2.1786,2.1788,2.1948,2.195,2.1952,0,0,0,0,0,0,2.1534,2.1545,2.1641,2.1599,2.1611,2.1635,2.1661,2.1664,2.1681,2.1711,2.1716,2.1688,2.1742,2.1752,2.1805,2.1831,2.1788,2.1791,2.1946,2.1949,2.1951,2.197,0,0,0,0,0,0,2.1531,2.1544,2.1565,2.1599,2.1613,2.1685,2.1662,2.1666,2.1688,2.1687,2.1725,2.173,2.1741,2.1798,2.1809,2.1837,2.1795,2.1944,2.1947,2.195,2.1967,2.1973,2.1978,0,0,0,0,0,2.1526,2.1569,2.1566,2.1578,2.1639,2.1687,2.1695,2.1706,2.169,2.1713,2.1732,2.1729,2.1826,2.1804,2.1816,2.1845,2.1942,2.1946,2.195,2.1965,2.1972,2.1978,0,0,0,0,0,0,2.1539,2.1573,2.1571,2.1626,2.1653,2.1686,2.1714,2.1713,2.1746,2.1744,2.1757,2.1766,2.1819,2.1837,2.1811,2.1903,2.1883,2.1889,2.189,2.1897,2.1902,2.1897,2.1799,0,0,0,0,0,2.1548,2.1582,2.1611,2.1656,2.167,2.1689,2.171,2.1716,2.1746,2.1758,2.1781,2.1811,2.1849,2.1873,2.191,2.1969,2.1979,2.1996,2.2001,2.2005,2.2011,2.2046,2.2054,2.1965,2.1965,2.1965,0,0,2.1568,2.1591,2.1611,2.1659,2.1681,2.1718,2.1699,2.1739,2.1766,2.1765,2.1816,2.1834,2.1868,2.1925,2.1951,2.1942,2.2038,2.201,2.2013,2.2017,2.205,2.2059,2.2066,2.1968,2.1967,2.1967,0,0,2.1622,2.1642,2.1683,2.1705,2.1737,2.175,2.176,2.1793,2.1804,2.1855,2.1855,2.1889,2.1953,2.1978,2.1999,2.2062,2.2062,2.2074,2.2103,2.2136,2.2143,2.2149,2.2174,2.2182,2.2079,2.208,2.208,0,2.1643,2.1696,2.1704,2.1744,2.1766,2.1763,2.1806,2.1827,2.1871,2.1887,2.1875,2.1955,2.1979,2.2042,2.2057,2.2074,2.2087,2.207,2.2141,2.2147,2.2154,2.2177,2.2186,2.2081,2.2081,2.2081,2.208,0,2.1721,2.1758,2.1787,2.1828,2.1853,2.1894,2.1909,2.1934,2.1937,2.1952,2.2005,2.2032,2.2074,2.2089,2.2094,2.2153,2.2147,2.2138,2.2118,2.2163,2.2185,2.2194,2.2083,2.2082,2.2082,2.2082,0,0,2.1788,2.1831,2.1842,2.1861,2.1896,2.1926,2.1967,2.2006,2.2028,2.2058,2.2094,2.2148,2.214,2.2164,2.2171,2.22,2.225,2.2187,2.2189,2.22,2.232,2.2327,2.2337,2.2249,2.225,2.2252,2.2317,0,2.1847,2.1918,2.1927,2.1991,2.2026,2.2024,2.2061,2.2087,2.2102,2.2135,2.2151,2.219,2.2175,2.219,2.2218,2.2238,2.2275,2.2233,2.2285,2.2286,2.2278,2.2349,2.2357,2.2417,2.2326,2.2327,2.2328,0,2.1927,2.1957,2.2025,2.2056,2.2071,2.2103,2.214,2.2171,2.2202,2.221,2.2237,2.224,2.2284,2.226,2.2323,2.2294,2.2316,2.2328,2.2331,2.2338,2.2311,2.2359,2.2437,2.2446,2.2342,2.2341,2.234,0,2.197,2.2028,2.2076,2.2092,2.2129,2.2152,2.2169,2.2198,2.2221,2.2254,2.227,2.2307,2.2329,2.2359,2.2373,2.2354,2.2435,2.2412,2.2445,2.2445,2.2464,2.2463,2.2548,2.2474,2.2474,2.2474,2.2474,0,2.2037,2.2079,2.2097,2.2126,2.2174,2.2183,2.223,2.2246,2.2272,2.2306,2.2307,2.2339,2.2355,2.239,2.2401,2.2452,2.2461,2.2471,2.2473,2.2472,2.2471,2.2487,2.2484,2.2477,2.2476,2.2476,2.2475,0,2.2095,2.2108,2.216,2.2191,2.2199,2.2233,2.226,2.2289,2.2303,2.2346,2.2357,2.2379,2.242,2.2436,2.2488,2.2495,2.2554,2.2553,2.2543,2.2545,2.2577,2.2574,2.2677,2.2692,2.2607,2.2608,2.2609,0,2.2137,2.2169,2.2202,2.2224,2.2242,2.2277,2.2301,2.2311,2.2336,2.2373,2.2399,2.2439,2.2473,2.2539,2.2561,2.26,2.2601,2.2634,2.2607,2.2605,2.2604,2.2602,2.2606,2.264,2.2641,2.2642,2.2642,0,2.2212,2.2217,2.225,2.2285,2.2313,2.2341,2.2369,2.2388,2.2403,2.2431,2.2472,2.2498,2.2549,2.259,2.263,2.265,2.265,2.265,2.266,2.266,2.2653,2.2659,2.2559,2.2648,2.2648,2.2647,2.2647,2.2647,2.2265,2.2294,2.2321,2.2358,2.238,2.2406,2.2435,2.2452,2.2486,2.2528,2.2532,2.2577,2.2607,2.2661,2.2682,2.2718,2.271,2.2724,2.2728,2.2732,2.2734,2.2646,2.2725,2.2725,2.2725,2.2725,2.2725,0,2.2342,2.2359,2.2392,2.2431,2.246,2.2454,2.2485,2.2511,2.2549,2.2577,2.2609,2.2658,2.2697,2.2721,2.2762,2.2786,2.2787,2.2797,2.2796,2.2801,2.2739,2.2727,2.2795,2.2795,2.2795,2.2795,2.2795,2.2795,2.2385,2.2433,2.2441,2.2501,2.2518,2.2561,2.2579,2.2604,2.2626,2.2679,2.2711,2.2726,2.2753,2.2795,2.2832,2.2838,2.2854,2.2864,2.287,2.2812,2.2805,2.2798,2.2787,2.2867,2.2867,2.2929,2.2929,2.293]},{"header":{"parameterUnit":"m.s-1","parameterCategory":1,"la1":30.2991,"la2":30.254,"lo1":-89.0895,"lo2":-89.0444,"dy":0.0017,"dx":0.0017,"nx":28,"ny":28,"refTime":"2024-07-28T03:00:00:Z","depth":0,"parameterNumber":3,"parameterNumberName":"V-component_of_WINDS"},"data":[0,0,0,0,0,0,0,0,0,0,0,0,0,0,0,0,0,0,0,0,0,0,0,0,0,0,0,0,0,0,0,0,0,0,0,0,0,0,0,0,0,0,0,0,0,0,0,0,0,0,0,0,0,0,0,0,0,0,2.0131,2.0131,0,2.014,2.014,2.014,2.0141,2.0141,2.0141,2.0141,2.0148,2.0148,2.0148,0,0,0,0,0,0,0,0,0,0,0,0,0,2.0107,2.0107,2.0131,2.0131,2.0131,2.014,2.014,2.014,2.0141,2.0141,2.0141,2.0141,2.0148,2.0148,2.0148,0,0,0,0,0,0,0,0,0,0,0,0,0,2.0117,2.0107,2.013,2.0132,2.0132,2.014,2.014,2.014,2.0141,2.0141,2.0141,2.014,2.0147,2.0148,2.0148,2.0154,0,0,2.015,2.015,0,0,0,0,0,0,0,0,2.0116,2.0118,2.0132,2.0132,2.0132,2.0139,2.0134,2.0145,2.0141,2.0138,2.0141,2.014,2.0145,2.0145,2.0147,2.0154,2.0155,2.015,2.015,2.015,2.015,0,0,0,0,0,0,0,2.0115,2.0117,2.0134,2.0132,2.0132,2.0131,2.0132,2.0136,2.0142,2.0138,2.0138,2.0139,2.0145,2.0147,2.0148,2.0155,2.015,2.015,2.015,2.015,2.0161,2.0161,0,0,0,0,0,0,2.0115,2.0117,2.0134,2.0135,2.0124,2.0131,2.0133,2.0137,2.0142,2.0142,2.0139,2.0139,2.0146,2.0147,2.0148,2.0152,2.015,2.015,2.0151,2.0161,2.0161,2.0161,0,0,0,0,0,0,2.0115,2.0117,2.0134,2.0126,2.0128,2.0132,2.0137,2.0137,2.014,2.0143,2.0144,2.0141,2.0146,2.0147,2.0151,2.0152,2.0151,2.0151,2.0161,2.0161,2.0161,2.0161,0,0,0,0,0,0,2.0114,2.0117,2.0121,2.0126,2.0128,2.0139,2.0137,2.0138,2.0141,2.0141,2.0145,2.0145,2.0146,2.0151,2.0152,2.0153,2.0151,2.0161,2.0161,2.0161,2.0161,2.0161,2.0161,0,0,0,0,0,2.0113,2.0121,2.0121,2.0123,2.0133,2.0139,2.014,2.0142,2.0141,2.0143,2.0145,2.0145,2.0152,2.0151,2.0152,2.0153,2.0161,2.0161,2.0161,2.0161,2.0161,2.0161,0,0,0,0,0,0,2.0116,2.0122,2.0122,2.0132,2.0135,2.0139,2.0143,2.0143,2.0146,2.0146,2.0147,2.0148,2.0151,2.0153,2.0152,2.0156,2.0156,2.0156,2.0155,2.0156,2.0156,2.0155,2.0152,0,0,0,0,0,2.0117,2.0123,2.0127,2.0135,2.0137,2.0139,2.0142,2.0143,2.0146,2.0147,2.0149,2.0151,2.0153,2.0154,2.0157,2.0161,2.016,2.0162,2.0162,2.0162,2.0162,2.016,2.016,2.0161,2.0161,2.0161,0,0,2.0121,2.0125,2.0129,2.0136,2.0138,2.0142,2.0141,2.0146,2.0147,2.0148,2.0151,2.0152,2.0154,2.0157,2.0158,2.0158,2.0161,2.0162,2.0162,2.0162,2.016,2.016,2.016,2.0161,2.0161,2.0161,0,0,2.0129,2.0134,2.0139,2.0141,2.0145,2.0145,2.0146,2.015,2.0151,2.0154,2.0153,2.0154,2.0159,2.0159,2.016,2.0162,2.0161,2.0163,2.0163,2.0161,2.0161,2.0161,2.0159,2.0159,2.0163,2.0163,2.0163,0,2.0133,2.014,2.0142,2.0145,2.0147,2.0147,2.015,2.0152,2.0155,2.0155,2.0155,2.0158,2.016,2.0161,2.0161,2.0162,2.0161,2.0163,2.0161,2.0161,2.0161,2.0159,2.0159,2.0163,2.0163,2.0163,2.0163,0,2.0143,2.0147,2.015,2.0153,2.0155,2.0159,2.0159,2.016,2.0159,2.0159,2.016,2.0161,2.0162,2.0162,2.0163,2.0162,2.0161,2.0161,2.0161,2.0161,2.0159,2.0158,2.0163,2.0163,2.0163,2.0163,0,0,2.0155,2.0156,2.0157,2.0157,2.0158,2.0161,2.0162,2.0163,2.0162,2.0164,2.0163,2.0165,2.0163,2.0164,2.0163,2.0162,2.016,2.0161,2.0161,2.0159,2.0155,2.0154,2.0154,2.0159,2.0159,2.0159,2.0154,0,2.0162,2.0166,2.0165,2.0168,2.017,2.0167,2.0168,2.0168,2.0167,2.0166,2.0165,2.0165,2.0164,2.0164,2.0162,2.016,2.0159,2.0161,2.0156,2.0156,2.0155,2.0153,2.0154,2.0149,2.0154,2.0154,2.0154,0,2.0171,2.0171,2.0174,2.0172,2.0172,2.0173,2.0171,2.0172,2.017,2.0168,2.0167,2.0165,2.0164,2.0163,2.0159,2.016,2.0158,2.0156,2.0156,2.0155,2.0154,2.015,2.0149,2.0147,2.0153,2.0153,2.0153,0,2.0176,2.0177,2.0178,2.0178,2.0176,2.0176,2.0175,2.0173,2.0172,2.0169,2.0168,2.0166,2.0164,2.0161,2.0157,2.0158,2.0152,2.0152,2.0149,2.0149,2.0148,2.0148,2.0144,2.0149,2.0149,2.0149,2.0149,0,2.0183,2.0184,2.018,2.0181,2.018,2.0178,2.0178,2.0176,2.0173,2.0171,2.0169,2.0167,2.0163,2.0159,2.0156,2.0151,2.0151,2.0148,2.0147,2.0148,2.0148,2.0146,2.0146,2.0148,2.0148,2.0148,2.0149,0,2.0189,2.0187,2.0187,2.0184,2.0183,2.0183,2.0179,2.0177,2.0175,2.0172,2.0171,2.0167,2.0162,2.0158,2.0153,2.015,2.0144,2.0144,2.0145,2.0144,2.014,2.014,2.0134,2.0132,2.0139,2.0139,2.0139,0,2.0193,2.0193,2.0189,2.0188,2.0186,2.0185,2.0183,2.0179,2.0177,2.0172,2.017,2.0166,2.0162,2.0153,2.0149,2.0143,2.0141,2.0139,2.0141,2.014,2.0138,2.0138,2.0136,2.0139,2.0139,2.0139,2.0139,0,2.0199,2.0197,2.0195,2.0191,2.0189,2.0186,2.0183,2.0181,2.0176,2.0174,2.0169,2.0165,2.0158,2.0152,2.0145,2.0141,2.0138,2.0138,2.0137,2.0137,2.0137,2.0134,2.0143,2.0139,2.0139,2.0139,2.0139,2.0139,2.0203,2.0201,2.0197,2.0194,2.0191,2.0187,2.0184,2.018,2.0176,2.017,2.0168,2.0162,2.0155,2.0145,2.0141,2.0135,2.0135,2.0133,2.0133,2.0132,2.0131,2.0138,2.0134,2.0134,2.0134,2.0134,2.0134,0,2.0206,2.0203,2.02,2.0194,2.019,2.0188,2.0183,2.018,2.0175,2.0169,2.0164,2.0156,2.0149,2.0142,2.0135,2.013,2.0128,2.0128,2.0128,2.0126,2.0133,2.0134,2.0129,2.0129,2.0129,2.013,2.013,2.013,2.0208,2.0205,2.0201,2.0195,2.0191,2.0185,2.0182,2.0177,2.0172,2.0163,2.0157,2.0153,2.0146,2.0136,2.0129,2.0127,2.0123,2.0123,2.012,2.0126,2.0126,2.0127,2.0128,2.0122,2.0122,2.0114,2.0114,2.0114]}]]